Regional Weather Roundup
Issued by NWS Sioux Falls, SD

Home | Current Version | Previous Version | Text Only | Print | Product List | Glossary Off
Versions: 1 2 3 4 5 6 7 8 9 10 11 12 13 14 15 16 17 18 19 20 21 22 23 24 25 26 27 28 29 30 31 32 33 34 35 36 37 38 39 40 41 42 43 44 45 46 47 48 49 50

000
ASUS43 KFSD 250002
RWRFSD

WEATHER ROUNDUP FOR SE SOUTH DAKOTA/SW MINNESOTA/NW IOWA
NATIONAL WEATHER SERVICE SIOUX FALLS SD
700 PM CDT FRI APR 24 2015

NOTE: "FAIR" INDICATES FEW OR NO CLOUDS BELOW 12,000 FEET WITH NO
SIGNIFICANT WEATHER AND OR OBSTRUCTIONS TO VISIBILITY.


SDZ038>040-050-052>070-250100-
SOUTHEAST SOUTH DAKOTA

CITY           SKY/WX    TMP DP  RH WIND       PRES   REMARKS
BROOKINGS      MOSUNNY   57  46  67 E21       29.59R
CHAMBERLAIN    NOT AVBL
HURON          MOSUNNY   72  50  45 E16       29.47R
6HR MIN TEMP:  68; 6HR MAX TEMP:  77;

MADISON        FAIR      63  50  63 E26       29.54R
MITCHELL       TSTM      64  55  72 NW13G25   29.49R
6HR MIN TEMP:  63; 6HR MAX TEMP:  81; 6HR PCP:  0.32;

SIOUX FALLS    CLOUDY    67  51  56 SE23G35   29.52S
6HR MIN TEMP:  61; 6HR MAX TEMP:  74;

WINNER         FAIR      76  41  28 N8        29.45S
YANKTON        CLOUDY    72  54  53 S13       29.48R
$$

MNZ071-072-080-081-089-090-097-098-250100-
SOUTHWEST MINNESOTA

CITY           SKY/WX    TMP DP  RH WIND       PRES   REMARKS
FAIRMONT       CLOUDY    46  14  27 SE21      29.70S
JACKSON        CLOUDY    50  43  76 SE20G26   29.68S
LUVERNE        PTSUNNY   59  50  72 E18G29    29.59R
MARSHALL       CLOUDY    50  39  66 E17G25    29.65F
6HR MIN TEMP:  50; 6HR MAX TEMP:  57;

MONTEVIDEO     CLOUDY    48  45  87 S17       29.70F
PIPESTONE      MOSUNNY   55  46  71 E20G25    29.59S
REDWOOD FALLS  CLOUDY    46  42  86 E13G21    29.71S
TRACY          CLOUDY    52  46  79 SE20      29.66S
WORTHINGTON    CLOUDY    52  45  76 SE21G26   29.64R
$$

IAZ001>003-012>014-020>022-031-032-NEZ013-014-SDZ071-250100-
NORTHWEST IOWA

CITY           SKY/WX    TMP DP  RH WIND       PRES   REMARKS
DENISON        PTSUNNY   64  54  68 S14       29.59S
ESTHERVILLE    CLOUDY    49  45  86 SE18      29.67F
SIOUX CITY     MOSUNNY   72  52  49 S16       29.54F
6HR MIN TEMP:  70; 6HR MAX TEMP:  76;

SPENCER        MOSUNNY   54  47  77 SE21G29   29.63F
6HR MIN TEMP:  48; 6HR MAX TEMP:  60; 6HR PCP:  0.01;

$$

ABBREVIATIONS USED IN REMARKS
   TC - TEMPERATURE IN CELSIUS
  WCI - WIND CHILL INDEX
   HX - HEAT INDEX
  VSB - VISIBILITY



USA.gov is the U.S. government's official web portal to all federal, state and local government web resources and services.